Language: 


Des rapports , des résumés tant et plus, au choix de chacun....


Données Historiques de Météogheer
Journalier Rapport pour Novembre 22, 2017 Unitée:  Impériale    Métrique   Les deux
Suivant Jour »
Journalier Hebdomadaire Mensuel Annuel Sur mesure
  Max: Min: Moyenne:
Température: 58.8 °F 50.4 °F 53.1 °F
Point de rosée: 51.8 °F 42.8 °F 47.8 °F
Humidité: 95% 66% 82%
Vent: 17mph 0.9mph 8.6mph
Rafales: 23.3mph - -
Vent- - SSW
Pression: 29.8 in 29.5 in -
Pluie: 0 in    
Historical Graphs
 
 
Données tabulaires pour Novembre 22, 2017
Heure Température Point de rosée Pression Vent Vent Rafales Humidité Pluie Taux (Horaire) Conditions
00:09 52.5 °F 50 °F 29.8 in SW 7.8 mph 11.2 mph 91% 0 in
00:14 52.5 °F 50 °F 29.8 in SSW 7.2 mph 12.1 mph 91% 0 in
00:19 52.7 °F 50 °F 29.8 in SSW 7.4 mph 12.1 mph 91% 0 in
00:24 52.7 °F 50 °F 29.8 in SW 11 mph 12.1 mph 90% 0 in
00:29 52.9 °F 50 °F 29.8 in SSW 6.5 mph 12.3 mph 90% 0 in
00:34 52.9 °F 50 °F 29.8 in SSW 7.6 mph 13 mph 89% 0 in
00:39 52.9 °F 50 °F 29.8 in South 10.7 mph 13 mph 89% 0 in
00:41 53.1 °F 50 °F 29.8 in SSW 12.8 mph 14.8 mph 89% 0 in
00:57 53.1 °F 50 °F 29.8 in SSW 7.8 mph 11 mph 89% 0 in
01:02 53.1 °F 50 °F 29.8 in South 9.6 mph 10.7 mph 89% 0 in
01:12 53.1 °F 50 °F 29.8 in SSW 8.7 mph 10.7 mph 89% 0 in
01:27 53.1 °F 50 °F 29.8 in SSW 5.8 mph 9.8 mph 89% 0 in
01:32 52.9 °F 50 °F 29.8 in SSW 4 mph 6.3 mph 89% 0 in
01:37 52.7 °F 50 °F 29.8 in SSW 3.8 mph 5.8 mph 89% 0 in
01:42 52.7 °F 50 °F 29.8 in SSW 2.9 mph 7.2 mph 89% 0 in
01:47 52.7 °F 50 °F 29.8 in SSW 4.9 mph 7.2 mph 90% 0 in
01:52 52.7 °F 50 °F 29.8 in SSW 3.6 mph 7.4 mph 90% 0 in
02:02 52.7 °F 50 °F 29.8 in South 11.9 mph 11.9 mph 90% 0 in
02:12 52.9 °F 50 °F 29.7 in SSW 10.7 mph 13 mph 90% 0 in
02:17 52.9 °F 50 °F 29.7 in WSW 8.1 mph 17.4 mph 89% 0 in
02:22 52.9 °F 50 °F 29.7 in SSW 10.7 mph 17.4 mph 89% 0 in
02:27 52.9 °F 50 °F 29.7 in SW 10.1 mph 17.2 mph 89% 0 in
02:32 52.9 °F 50 °F 29.7 in SSW 8.7 mph 17.2 mph 89% 0 in
02:43 52.9 °F 50 °F 29.7 in SSW 7.8 mph 13.6 mph 89% 0 in
02:48 52.9 °F 50 °F 29.7 in SW 6.3 mph 11 mph 89% 0 in
02:53 52.9 °F 50 °F 29.7 in South 8.7 mph 13.2 mph 89% 0 in
02:58 52.9 °F 50 °F 29.7 in WSW 0.9 mph 13.2 mph 89% 0 in
03:13 52.9 °F 50 °F 29.7 in SSW 2 mph 10.1 mph 90% 0 in
03:18 52.9 °F 50 °F 29.7 in South 7.4 mph 10.1 mph 90% 0 in
03:33 52.7 °F 50 °F 29.7 in SSW 8.7 mph 8.7 mph 90% 0 in
03:38 52.7 °F 50 °F 29.7 in SW 5.8 mph 13 mph 90% 0 in
03:43 52.9 °F 50 °F 29.7 in SSW 6.3 mph 13 mph 90% 0 in
03:48 52.9 °F 50 °F 29.7 in SSW 10.5 mph 13.2 mph 90% 0 in
03:53 52.9 °F 50 °F 29.7 in WSW 7.4 mph 13.2 mph 90% 0 in
03:58 52.7 °F 50 °F 29.7 in SW 10.1 mph 12.3 mph 90% 0 in
04:03 52.7 °F 50 °F 29.7 in SW 5.6 mph 11 mph 90% 0 in
04:08 52.7 °F 50 °F 29.7 in SSW 12.1 mph 13.2 mph 90% 0 in
04:13 52.9 °F 50 °F 29.7 in SSW 10.7 mph 15.4 mph 90% 0 in
04:19 52.9 °F 50 °F 29.7 in WSW 8.5 mph 15.4 mph 90% 0 in
04:25 52.9 °F 50 °F 29.7 in SW 8.5 mph 13.2 mph 90% 0 in
04:30 52.7 °F 50 °F 29.7 in SSW 9.8 mph 12.8 mph 90% 0 in
04:35 52.7 °F 50 °F 29.7 in SSW 12.1 mph 12.5 mph 90% 0 in
04:41 52.7 °F 50 °F 29.7 in South 7.6 mph 12.5 mph 90% 0 in
04:46 52.5 °F 50 °F 29.7 in SSW 12.8 mph 14.5 mph 90% 0 in
04:51 52.5 °F 50 °F 29.7 in SW 8.7 mph 14.5 mph 90% 0 in
04:56 52.5 °F 50 °F 29.7 in SSW 8.1 mph 14.3 mph 90% 0 in
05:01 52.3 °F 50 °F 29.7 in South 10.1 mph 12.5 mph 90% 0 in
05:06 52.3 °F 50 °F 29.7 in SSW 7.6 mph 12.1 mph 90% 0 in
05:11 52.3 °F 50 °F 29.7 in SSW 6 mph 15.2 mph 91% 0 in
05:16 52.5 °F 50 °F 29.7 in SW 6.9 mph 15.2 mph 91% 0 in
05:21 52.3 °F 50 °F 29.7 in SW 9.6 mph 12.5 mph 91% 0 in
05:26 52.3 °F 50 °F 29.7 in SW 11.2 mph 11.2 mph 91% 0 in
05:32 52.3 °F 50 °F 29.7 in WSW 6.3 mph 13 mph 91% 0 in
05:37 52.3 °F 50 °F 29.7 in SSW 6.5 mph 13 mph 91% 0 in
05:42 52.3 °F 50 °F 29.7 in SSW 9.4 mph 13 mph 91% 0 in
05:47 52.2 °F 50 °F 29.7 in South 5.8 mph 11 mph 91% 0 in
05:52 52 °F 50 °F 29.7 in SSW 8.1 mph 10.1 mph 91% 0 in
06:02 51.8 °F 50 °F 29.7 in SSW 7.8 mph 12.1 mph 92% 0 in
06:07 51.8 °F 50 °F 29.7 in SSW 10.1 mph 12.1 mph 92% 0 in
06:12 51.6 °F 50 °F 29.7 in SSW 9.2 mph 10.7 mph 93% 0 in
06:17 51.6 °F 50 °F 29.7 in SW 6.3 mph 11.2 mph 93% 0 in
06:22 51.6 °F 50 °F 29.7 in South 5.6 mph 11.2 mph 93% 0 in
06:27 51.8 °F 50 °F 29.7 in SSW 5.6 mph 9.6 mph 93% 0 in
06:32 51.8 °F 50 °F 29.7 in South 5.6 mph 10.7 mph 93% 0 in
06:37 51.8 °F 50 °F 29.7 in South 5.8 mph 10.7 mph 94% 0 in
06:42 51.8 °F 50 °F 29.7 in South 3.8 mph 10.1 mph 94% 0 in
06:47 51.8 °F 50 °F 29.7 in SW 7.4 mph 11 mph 94% 0 in
06:52 51.8 °F 50 °F 29.7 in South 4.9 mph 12.3 mph 94% 0 in
06:57 51.8 °F 50 °F 29.7 in SSW 6.5 mph 12.3 mph 94% 0 in
07:03 51.8 °F 50 °F 29.7 in SSW 11.9 mph 12.5 mph 94% 0 in
07:08 51.8 °F 50 °F 29.7 in SSW 7.8 mph 12.5 mph 94% 0 in
07:13 52 °F 50 °F 29.7 in SSW 8.1 mph 12.5 mph 94% 0 in
07:18 52 °F 50 °F 29.7 in SSW 10.1 mph 10.3 mph 94% 0 in
07:28 52 °F 50 °F 29.7 in SSW 8.1 mph 10.5 mph 94% 0 in
07:38 52 °F 50 °F 29.7 in SW 5.6 mph 12.3 mph 94% 0 in
07:53 51.4 °F 50 °F 29.7 in South 5.8 mph 12.3 mph 94% 0 in
07:58 51.3 °F 50 °F 29.7 in SW 4.9 mph 12.3 mph 94% 0 in
08:03 51.1 °F 50 °F 29.7 in South 6.3 mph 13 mph 94% 0 in
08:13 50.7 °F 48.2 °F 29.7 in SSW 8.5 mph 12.1 mph 94% 0 in
08:18 50.7 °F 50 °F 29.7 in SSW 8.1 mph 14.8 mph 95% 0 in
08:23 50.7 °F 50 °F 29.7 in SSW 11 mph 14.8 mph 95% 0 in
08:28 50.5 °F 50 °F 29.7 in WSW 7.6 mph 13 mph 95% 0 in
08:33 50.5 °F 50 °F 29.7 in SW 8.5 mph 13 mph 95% 0 in
08:44 50.5 °F 50 °F 29.7 in SSW 10.3 mph 14.1 mph 95% 0 in
08:54 50.4 °F 50 °F 29.7 in South 6.7 mph 10.7 mph 95% 0 in
09:04 50.4 °F 50 °F 29.7 in SSW 6 mph 13.9 mph 95% 0 in
09:09 50.4 °F 50 °F 29.7 in South 8.5 mph 13.9 mph 95% 0 in
09:14 50.5 °F 50 °F 29.7 in South 6 mph 11 mph 95% 0 in
09:19 50.7 °F 50 °F 29.7 in SSW 8.1 mph 13 mph 95% 0 in
09:24 50.7 °F 50 °F 29.7 in SSW 5.4 mph 13 mph 95% 0 in
09:26 50.7 °F 50 °F 29.7 in SSW 5.4 mph 12.1 mph 95% 0 in
09:31 50.9 °F 50 °F 29.7 in SSW 8.5 mph 12.3 mph 95% 0 in
09:36 51.1 °F 50 °F 29.7 in SSW 8.1 mph 12.3 mph 95% 0 in
09:51 51.3 °F 50 °F 29.7 in SSW 9.6 mph 14.8 mph 94% 0 in
09:56 51.3 °F 50 °F 29.7 in SE 5.8 mph 14.8 mph 94% 0 in
10:01 51.6 °F 50 °F 29.7 in SSW 5.8 mph 11.4 mph 93% 0 in
10:06 52 °F 50 °F 29.7 in SSW 10.3 mph 13.2 mph 93% 0 in
10:11 52 °F 50 °F 29.7 in SSW 12.1 mph 13.9 mph 92% 0 in
10:16 52.2 °F 50 °F 29.7 in South 9.8 mph 13.9 mph 92% 0 in
10:22 52.3 °F 50 °F 29.7 in South 7.4 mph 13.9 mph 91% 0 in
10:27 52.7 °F 50 °F 29.7 in South 10.7 mph 12.5 mph 91% 0 in
10:32 53.2 °F 50 °F 29.7 in WSW 6.3 mph 12.8 mph 90% 0 in
10:37 53.2 °F 50 °F 29.7 in South 10.5 mph 13 mph 89% 0 in
10:42 53.2 °F 50 °F 29.7 in SSW 6.3 mph 14.5 mph 89% 0 in
10:52 54 °F 50 °F 29.7 in South 10.7 mph 13.4 mph 87% 0 in
10:57 54 °F 50 °F 29.7 in SSW 8.5 mph 13.2 mph 87% 0 in
11:02 54 °F 50 °F 29.7 in SSW 7.4 mph 13.2 mph 87% 0 in
11:12 54 °F 50 °F 29.7 in SW 12.3 mph 15.2 mph 87% 0 in
11:17 54 °F 50 °F 29.7 in SSW 14.8 mph 15.2 mph 87% 0 in
11:22 54 °F 50 °F 29.7 in South 8.5 mph 15.2 mph 87% 0 in
11:27 54 °F 50 °F 29.7 in SSW 9.8 mph 15.2 mph 87% 0 in
11:32 54 °F 50 °F 29.7 in South 12.5 mph 15.4 mph 87% 0 in
11:38 54 °F 50 °F 29.7 in SSE 14.5 mph 15.7 mph 87% 0 in
11:48 54 °F 50 °F 29.7 in South 12.3 mph 15.9 mph 87% 0 in
11:53 54.7 °F 50 °F 29.7 in SSW 15.2 mph 15.9 mph 83% 0 in
12:03 54.9 °F 50 °F 29.7 in South 7.8 mph 15.9 mph 83% 0 in
12:04 54.9 °F 50 °F 29.7 in SSW 11.9 mph 15.9 mph 83% 0 in
12:09 55 °F 50 °F 29.7 in SSW 7.4 mph 17.9 mph 83% 0 in
12:14 55.2 °F 50 °F 29.7 in SSW 12.8 mph 17.9 mph 82% 0 in
12:19 55 °F 50 °F 29.7 in South 6 mph 16.1 mph 82% 0 in
12:24 55.4 °F 50 °F 29.7 in South 10.1 mph 14.5 mph 81% 0 in
12:29 55.4 °F 50 °F 29.7 in South 8.5 mph 14.5 mph 81% 0 in
12:34 55.4 °F 50 °F 29.7 in South 10.5 mph 14.5 mph 81% 0 in
12:39 55.8 °F 50 °F 29.7 in South 10.3 mph 13.2 mph 80% 0 in
12:49 56.1 °F 50 °F 29.7 in SSW 10.7 mph 12.3 mph 80% 0 in
12:54 56.1 °F 50 °F 29.7 in South 8.1 mph 12.1 mph 80% 0 in
12:59 56.8 °F 50 °F 29.7 in South 5.6 mph 10.7 mph 79% 0 in
13:04 57.2 °F 50 °F 29.7 in South 4.5 mph 10.7 mph 78% 0 in
13:14 57.9 °F 51.8 °F 29.7 in SSW 4.9 mph 9.8 mph 77% 0 in
13:19 57.9 °F 50 °F 29.7 in SSW 8.9 mph 13.4 mph 73% 0 in
13:24 58.1 °F 50 °F 29.7 in SSW 4 mph 13.4 mph 73% 0 in
13:29 58.3 °F 50 °F 29.6 in SSW 9.6 mph 10.5 mph 72% 0 in
13:35 58.3 °F 50 °F 29.6 in SW 11 mph 12.5 mph 71% 0 in
13:40 58.5 °F 48.2 °F 29.6 in SSW 8.9 mph 13.4 mph 69% 0 in
13:45 58.5 °F 48.2 °F 29.6 in SSW 11 mph 13.4 mph 69% 0 in
13:50 58.5 °F 48.2 °F 29.6 in SW 14.1 mph 14.1 mph 68% 0 in
13:55 58.6 °F 48.2 °F 29.6 in South 7.8 mph 14.1 mph 67% 0 in
14:00 58.6 °F 48.2 °F 29.6 in SSE 4 mph 14.1 mph 68% 0 in
14:10 58.8 °F 48.2 °F 29.6 in SSE 6.9 mph 10.7 mph 67% 0 in
14:15 58.6 °F 48.2 °F 29.6 in SSW 6.5 mph 10.7 mph 68% 0 in
14:20 58.6 °F 48.2 °F 29.6 in South 6.5 mph 12.8 mph 67% 0 in
14:25 58.5 °F 48.2 °F 29.6 in SSW 9.8 mph 12.8 mph 66% 0 in
14:30 58.5 °F 48.2 °F 29.6 in SSW 12.1 mph 12.1 mph 68% 0 in
14:40 58.5 °F 48.2 °F 29.6 in South 9.2 mph 12.1 mph 68% 0 in
14:45 58.5 °F 48.2 °F 29.6 in South 7.4 mph 12.5 mph 68% 0 in
15:00 57.9 °F 48.2 °F 29.6 in South 10.3 mph 14.3 mph 68% 0 in
15:05 57.7 °F 48.2 °F 29.6 in South 8.5 mph 12.1 mph 68% 0 in
15:10 57.6 °F 48.2 °F 29.6 in South 10.1 mph 11.9 mph 69% 0 in
15:15 57.6 °F 48.2 °F 29.6 in South 8.7 mph 10.3 mph 69% 0 in
15:20 57.2 °F 48.2 °F 29.6 in South 8.9 mph 16.3 mph 68% 0 in
15:25 57.2 °F 48.2 °F 29.6 in South 6.5 mph 16.3 mph 69% 0 in
15:31 57 °F 48.2 °F 29.6 in South 10.3 mph 12.1 mph 70% 0 in
15:36 56.7 °F 48.2 °F 29.6 in SSW 12.5 mph 12.5 mph 70% 0 in
15:51 56.3 °F 48.2 °F 29.6 in SSE 9.6 mph 10.3 mph 71% 0 in
15:56 56.1 °F 48.2 °F 29.6 in South 10.5 mph 10.7 mph 71% 0 in
16:01 55.8 °F 48.2 °F 29.6 in SSW 8.9 mph 11.2 mph 71% 0 in
16:06 55.6 °F 46.4 °F 29.6 in South 10.1 mph 13.2 mph 71% 0 in
16:11 55 °F 48.2 °F 29.6 in SSE 6.7 mph 13.2 mph 72% 0 in
16:12 55 °F 48.2 °F 29.6 in SSW 8.1 mph 13.2 mph 72% 0 in
16:17 54.9 °F 46.4 °F 29.6 in SSW 10.3 mph 12.5 mph 72% 0 in
16:22 54.9 °F 46.4 °F 29.6 in SSW 10.3 mph 12.5 mph 71% 0 in
16:27 54.5 °F 46.4 °F 29.6 in South 7.6 mph 12.1 mph 70% 0 in
16:32 54.5 °F 46.4 °F 29.6 in SSE 7.4 mph 12.3 mph 71% 0 in
16:42 54.1 °F 46.4 °F 29.6 in South 6 mph 12.3 mph 71% 0 in
16:47 53.8 °F 46.4 °F 29.6 in South 7.6 mph 10.3 mph 72% 0 in
16:52 53.6 °F 46.4 °F 29.6 in SSE 12.3 mph 12.3 mph 73% 0 in
16:57 53.6 °F 46.4 °F 29.6 in SSW 8.9 mph 12.8 mph 73% 0 in
17:02 53.2 °F 44.6 °F 29.6 in South 8.1 mph 12.8 mph 74% 0 in
17:07 53.1 °F 44.6 °F 29.6 in South 10.1 mph 11 mph 74% 0 in
17:12 53.1 °F 44.6 °F 29.6 in South 7.6 mph 12.5 mph 74% 0 in
17:17 52.7 °F 46.4 °F 29.6 in South 6.3 mph 12.5 mph 75% 0 in
17:22 52.5 °F 44.6 °F 29.6 in South 7.6 mph 12.5 mph 75% 0 in
17:28 52.5 °F 44.6 °F 29.6 in South 8.1 mph 12.3 mph 75% 0 in
17:38 52 °F 44.6 °F 29.6 in SSW 8.5 mph 10.5 mph 75% 0 in
17:43 52 °F 44.6 °F 29.6 in South 6.5 mph 10.5 mph 75% 0 in
17:53 51.6 °F 44.6 °F 29.6 in SSW 6.3 mph 11.9 mph 76% 0 in
18:03 51.6 °F 44.6 °F 29.5 in SSW 6 mph 10.7 mph 76% 0 in
18:13 51.8 °F 44.6 °F 29.6 in South 8.1 mph 13 mph 75% 0 in
18:18 51.6 °F 44.6 °F 29.6 in South 7.2 mph 13 mph 75% 0 in
18:20 51.6 °F 44.6 °F 29.6 in South 7.2 mph 13 mph 75% 0 in
18:26 51.6 °F 44.6 °F 29.5 in South 7.6 mph 12.8 mph 75% 0 in
18:31 51.6 °F 44.6 °F 29.5 in South 12.5 mph 15.7 mph 75% 0 in
18:36 51.8 °F 42.8 °F 29.5 in South 10.1 mph 15.7 mph 73% 0 in
18:41 51.8 °F 42.8 °F 29.6 in South 8.1 mph 15.4 mph 73% 0 in
18:46 51.8 °F 42.8 °F 29.6 in SSW 8.1 mph 15.4 mph 73% 0 in
18:51 51.6 °F 42.8 °F 29.6 in SSW 9.4 mph 15.4 mph 73% 0 in
19:01 51.6 °F 42.8 °F 29.6 in SSW 9.8 mph 17.4 mph 73% 0 in
19:06 51.8 °F 42.8 °F 29.6 in SSW 10.3 mph 15.2 mph 72% 0 in
19:11 51.8 °F 42.8 °F 29.6 in South 8.5 mph 19.5 mph 72% 0 in
19:16 52 °F 42.8 °F 29.6 in South 13.9 mph 19.5 mph 71% 0 in
19:21 51.8 °F 42.8 °F 29.6 in SSW 6.5 mph 15.2 mph 71% 0 in
19:26 51.8 °F 42.8 °F 29.5 in South 8.1 mph 15.2 mph 71% 0 in
19:31 51.6 °F 42.8 °F 29.5 in SSW 12.3 mph 17.4 mph 72% 0 in
19:36 51.6 °F 42.8 °F 29.5 in SSW 7.4 mph 17.4 mph 72% 0 in
19:41 51.6 °F 42.8 °F 29.5 in South 12.8 mph 15.2 mph 72% 0 in
19:46 51.4 °F 42.8 °F 29.5 in South 7.8 mph 15.2 mph 73% 0 in
19:56 51.4 °F 42.8 °F 29.5 in SSW 17 mph 17 mph 73% 0 in
20:01 51.6 °F 42.8 °F 29.5 in South 11.4 mph 17 mph 72% 0 in
20:16 51.4 °F 42.8 °F 29.5 in South 6.9 mph 17 mph 72% 0 in
20:22 51.6 °F 42.8 °F 29.5 in SW 5.6 mph 17 mph 72% 0 in
20:26 51.4 °F 42.8 °F 29.5 in South 13.2 mph 17 mph 72% 0 in
20:32 51.3 °F 42.8 °F 29.5 in SSW 15.4 mph 15.4 mph 72% 0 in
20:37 51.3 °F 42.8 °F 29.5 in SSW 7.8 mph 15.4 mph 73% 0 in
20:42 51.3 °F 42.8 °F 29.5 in SSW 10.7 mph 14.8 mph 73% 0 in
20:47 51.4 °F 42.8 °F 29.5 in SSW 12.8 mph 13.2 mph 72% 0 in
20:52 51.4 °F 42.8 °F 29.5 in SSW 8.1 mph 16.8 mph 72% 0 in
20:57 51.4 °F 42.8 °F 29.5 in SSW 12.5 mph 16.8 mph 72% 0 in
21:07 51.4 °F 42.8 °F 29.5 in South 6 mph 13 mph 72% 0 in
21:12 51.3 °F 42.8 °F 29.5 in SSW 12.3 mph 13 mph 72% 0 in
21:17 51.3 °F 42.8 °F 29.5 in SSW 6.5 mph 13.4 mph 72% 0 in
21:22 51.3 °F 42.8 °F 29.5 in SSW 11 mph 13.4 mph 72% 0 in
21:27 51.3 °F 42.8 °F 29.5 in South 13.2 mph 13.2 mph 72% 0 in
21:32 51.4 °F 42.8 °F 29.5 in SW 7.4 mph 17.4 mph 72% 0 in
21:37 51.4 °F 42.8 °F 29.5 in South 8.7 mph 17.4 mph 72% 0 in
21:42 51.6 °F 42.8 °F 29.5 in SSW 10.1 mph 16.8 mph 71% 0 in
21:47 51.6 °F 42.8 °F 29.5 in SSW 11 mph 17 mph 71% 0 in
21:52 51.6 °F 42.8 °F 29.5 in South 11 mph 17 mph 71% 0 in
21:57 51.6 °F 42.8 °F 29.5 in South 13.2 mph 16.1 mph 71% 0 in
22:02 51.6 °F 42.8 °F 29.5 in South 7.6 mph 23.3 mph 71% 0 in
22:12 51.3 °F 42.8 °F 29.5 in South 5.4 mph 15.4 mph 72% 0 in
22:22 51.1 °F 42.8 °F 29.5 in South 7.6 mph 13.6 mph 72% 0 in
22:32 51.1 °F 42.8 °F 29.5 in SSW 11 mph 14.8 mph 73% 0 in
22:37 51.1 °F 42.8 °F 29.5 in South 10.7 mph 14.8 mph 73% 0 in
22:52 51.1 °F 42.8 °F 29.5 in SSE 8.7 mph 12.3 mph 73% 0 in
22:58 51.1 °F 42.8 °F 29.5 in SW 7.6 mph 12.3 mph 73% 0 in
23:11 51.3 °F 42.8 °F 29.5 in South 3.6 mph 10.1 mph 73% 0 in
23:16 51.3 °F 42.8 °F 29.5 in South 8.7 mph 12.1 mph 73% 0 in
23:21 51.4 °F 42.8 °F 29.5 in South 8.7 mph 12.8 mph 73% 0 in
23:31 51.6 °F 42.8 °F 29.5 in South 8.1 mph 11 mph 73% 0 in
23:41 51.8 °F 42.8 °F 29.5 in SSW 11 mph 13 mph 73% 0 in
23:46 52 °F 42.8 °F 29.5 in SSW 7.4 mph 12.3 mph 72% 0 in
23:51 52 °F 42.8 °F 29.5 in South 7.8 mph 12.1 mph 72% 0 in
23:56 52.2 °F 44.6 °F 29.5 in SW 7.2 mph 13 mph 72% 0 in
Données Historique de Météo Turbie

Mise a jour : 20/05/2018 16:10:12
Généré par Cumulus 1.9.4 (1099)